Time,TemperatureF,DewpointF,PressureIn,WindDirection,WindDirectionDegrees,WindSpeedMPH,WindSpeedGustMPH,Humidity,HourlyPrecipIn,Conditions,Clouds,dailyrainin,SoftwareType,DateUTC
2013-12-10 00:04:00,40.3,39.0,30.09,NNW,347,2.0,5.0,95,0.00,,,0.00,Wunderground v.1.15,2013-12-10 06:04:00,
2013-12-10 00:09:00,40.2,38.9,30.09,NW,319,2.0,2.0,95,0.00,,,0.00,Wunderground v.1.15,2013-12-10 06:09:00,
2013-12-10 00:14:00,40.2,38.9,30.09,NW,323,2.0,6.0,95,0.00,,,0.00,Wunderground v.1.15,2013-12-10 06:14:00,
2013-12-10 00:20:00,40.2,38.9,30.10,North,9,2.0,6.0,95,0.00,,,0.00,Wunderground v.1.15,2013-12-10 06:20:00,
2013-12-10 00:25:00,40.1,38.8,30.10,NNE,12,2.0,2.0,95,0.00,,,0.00,Wunderground v.1.15,2013-12-10 06:25:00,
2013-12-10 00:31:00,40.1,38.8,30.11,NW,322,2.0,4.0,95,0.00,,,0.00,Wunderground v.1.15,2013-12-10 06:31:00,
2013-12-10 00:36:00,40.0,38.4,30.11,North,356,2.0,3.0,94,0.00,,,0.00,Wunderground v.1.15,2013-12-10 06:36:00,
2013-12-10 00:41:00,40.0,38.4,30.12,NW,311,2.0,3.0,94,0.00,,,0.00,Wunderground v.1.15,2013-12-10 06:41:00,
2013-12-10 00:47:00,39.9,38.3,30.11,NNW,330,2.0,2.0,94,0.00,,,0.00,Wunderground v.1.15,2013-12-10 06:47:00,
2013-12-10 00:52:00,39.8,38.2,30.12,WNW,291,1.0,3.0,94,0.00,,,0.00,Wunderground v.1.15,2013-12-10 06:52:00,
2013-12-10 00:57:00,39.8,38.2,30.12,NNW,343,1.0,2.0,94,0.00,,,0.00,Wunderground v.1.15,2013-12-10 06:57:00,
2013-12-10 01:03:00,39.8,38.2,30.12,NW,326,1.0,2.0,94,0.00,,,0.00,Wunderground v.1.15,2013-12-10 07:03:00,
2013-12-10 01:08:00,39.8,38.2,30.12,North,6,1.0,1.0,94,0.00,,,0.00,Wunderground v.1.15,2013-12-10 07:08:00,
2013-12-10 01:14:00,39.7,38.1,30.12,NNW,327,1.0,3.0,94,0.00,,,0.00,Wunderground v.1.15,2013-12-10 07:14:00,
2013-12-10 01:19:00,39.7,38.1,30.13,NW,326,2.0,2.0,94,0.00,,,0.00,Wunderground v.1.15,2013-12-10 07:19:00,
2013-12-10 01:25:00,39.6,38.0,30.12,North,358,2.0,2.0,94,0.00,,,0.00,Wunderground v.1.15,2013-12-10 07:25:00,
2013-12-10 01:30:00,39.6,37.7,30.13,North,1,2.0,6.0,93,0.00,,,0.00,Wunderground v.1.15,2013-12-10 07:30:00,
2013-12-10 01:36:00,39.5,37.6,30.13,NNW,332,3.0,5.0,93,0.00,,,0.00,Wunderground v.1.15,2013-12-10 07:36:00,
2013-12-10 01:41:00,39.5,37.4,30.13,NNE,32,2.0,5.0,92,0.00,,,0.00,Wunderground v.1.15,2013-12-10 07:41:00,
2013-12-10 01:46:00,39.4,37.3,30.13,NNE,13,2.0,2.0,92,0.00,,,0.00,Wunderground v.1.15,2013-12-10 07:46:00,
2013-12-10 01:52:00,39.3,36.9,30.13,NNW,330,2.0,3.0,91,0.00,,,0.00,Wunderground v.1.15,2013-12-10 07:52:00,
2013-12-10 01:57:00,39.2,36.8,30.13,NW,326,2.0,5.0,91,0.00,,,0.00,Wunderground v.1.15,2013-12-10 07:57:00,
2013-12-10 02:03:00,39.3,36.6,30.14,NNW,336,3.0,5.0,90,0.00,,,0.00,Wunderground v.1.15,2013-12-10 08:03:00,
2013-12-10 02:08:00,39.3,36.6,30.13,NNE,32,3.0,3.0,90,0.00,,,0.00,Wunderground v.1.15,2013-12-10 08:08:00,
2013-12-10 02:13:00,39.3,36.3,30.14,NNW,337,2.0,6.0,89,0.00,,,0.00,Wunderground v.1.15,2013-12-10 08:13:00,
2013-12-10 02:19:00,39.3,36.3,30.13,WNW,302,2.0,4.0,89,0.00,,,0.00,Wunderground v.1.15,2013-12-10 08:19:00,
2013-12-10 02:24:00,39.3,36.3,30.14,North,352,2.0,4.0,89,0.00,,,0.00,Wunderground v.1.15,2013-12-10 08:24:00,
2013-12-10 02:30:00,39.4,36.4,30.14,NNW,333,1.0,2.0,89,0.00,,,0.00,Wunderground v.1.15,2013-12-10 08:30:00,
2013-12-10 02:35:00,39.3,36.0,30.14,NW,316,1.0,5.0,88,0.00,,,0.00,Wunderground v.1.15,2013-12-10 08:35:00,
2013-12-10 02:41:00,39.2,35.9,30.14,NW,316,1.0,5.0,88,0.00,,,0.00,Wunderground v.1.15,2013-12-10 08:41:00,
2013-12-10 02:46:00,39.2,35.9,30.15,North,356,1.0,1.0,88,0.00,,,0.00,Wunderground v.1.15,2013-12-10 08:46:00,
2013-12-10 02:52:00,39.2,35.9,30.15,NNW,328,1.0,6.0,88,0.00,,,0.00,Wunderground v.1.15,2013-12-10 08:52:00,
2013-12-10 02:57:00,39.1,35.8,30.15,NW,316,1.0,3.0,88,0.00,,,0.00,Wunderground v.1.15,2013-12-10 08:57:00,
2013-12-10 03:03:00,39.1,35.6,30.14,NW,326,1.0,3.0,87,0.00,,,0.00,Wunderground v.1.15,2013-12-10 09:03:00,
2013-12-10 03:04:00,39.0,35.5,30.15,NNW,345,1.0,3.0,87,0.00,,,0.00,Wunderground v.1.15,2013-12-10 09:04:00,
2013-12-10 03:09:00,39.0,35.5,30.14,NNW,333,1.0,3.0,87,0.00,,,0.00,Wunderground v.1.15,2013-12-10 09:09:00,
2013-12-10 03:14:00,38.9,35.4,30.15,NNW,333,2.0,3.0,87,0.00,,,0.00,Wunderground v.1.15,2013-12-10 09:14:00,
2013-12-10 03:20:00,38.9,35.4,30.15,NW,323,2.0,2.0,87,0.00,,,0.00,Wunderground v.1.15,2013-12-10 09:20:00,
2013-12-10 03:25:00,38.8,35.0,30.16,NNE,16,2.0,4.0,86,0.00,,,0.00,Wunderground v.1.15,2013-12-10 09:25:00,
2013-12-10 03:31:00,38.8,35.0,30.16,NW,319,2.0,3.0,86,0.00,,,0.00,Wunderground v.1.15,2013-12-10 09:31:00,
2013-12-10 03:36:00,38.7,34.6,30.16,NW,315,2.0,3.0,85,0.00,,,0.00,Wunderground v.1.15,2013-12-10 09:36:00,
2013-12-10 03:42:00,38.7,34.6,30.16,NNW,337,2.0,3.0,85,0.00,,,0.00,Wunderground v.1.15,2013-12-10 09:42:00,
2013-12-10 03:47:00,38.6,34.5,30.16,NW,321,2.0,3.0,85,0.00,,,0.00,Wunderground v.1.15,2013-12-10 09:47:00,
2013-12-10 03:53:00,38.4,34.3,30.17,NNE,27,2.0,4.0,85,0.00,,,0.00,Wunderground v.1.15,2013-12-10 09:53:00,
2013-12-10 03:58:00,38.4,34.3,30.16,NNW,340,2.0,2.0,85,0.00,,,0.00,Wunderground v.1.15,2013-12-10 09:58:00,
2013-12-10 04:04:00,38.3,34.5,30.17,NW,319,1.0,2.0,86,0.00,,,0.00,Wunderground v.1.15,2013-12-10 10:04:00,
2013-12-10 04:09:00,38.2,34.4,30.16,NW,306,1.0,6.0,86,0.00,,,0.00,Wunderground v.1.15,2013-12-10 10:09:00,
2013-12-10 04:14:00,38.1,34.0,30.17,North,353,2.0,6.0,85,0.00,,,0.00,Wunderground v.1.15,2013-12-10 10:14:00,
2013-12-10 04:20:00,37.9,33.8,30.17,SSW,199,2.0,3.0,85,0.00,,,0.00,Wunderground v.1.15,2013-12-10 10:20:00,
2013-12-10 04:25:00,37.9,33.8,30.17,North,1,1.0,3.0,85,0.00,,,0.00,Wunderground v.1.15,2013-12-10 10:25:00,
2013-12-10 04:31:00,37.9,33.8,30.17,NW,309,2.0,2.0,85,0.00,,,0.00,Wunderground v.1.15,2013-12-10 10:31:00,
2013-12-10 04:36:00,37.9,34.1,30.17,NW,315,1.0,1.0,86,0.00,,,0.00,Wunderground v.1.15,2013-12-10 10:36:00,
2013-12-10 04:42:00,37.7,33.9,30.18,West,277,1.0,3.0,86,0.00,,,0.00,Wunderground v.1.15,2013-12-10 10:42:00,
2013-12-10 04:47:00,37.7,33.9,30.16,North,1,1.0,2.0,86,0.00,,,0.00,Wunderground v.1.15,2013-12-10 10:47:00,
2013-12-10 04:53:00,37.7,33.9,30.17,NW,319,1.0,3.0,86,0.00,,,0.00,Wunderground v.1.15,2013-12-10 10:53:00,
2013-12-10 04:58:00,37.6,33.8,30.17,NNW,329,2.0,6.0,86,0.00,,,0.00,Wunderground v.1.15,2013-12-10 10:58:00,
2013-12-10 05:04:00,37.5,33.4,30.17,WNW,295,2.0,6.0,85,0.00,,,0.00,Wunderground v.1.15,2013-12-10 11:04:00,
2013-12-10 05:10:00,37.5,33.4,30.17,NW,313,2.0,2.0,85,0.00,,,0.00,Wunderground v.1.15,2013-12-10 11:10:00,
2013-12-10 05:15:00,37.3,33.2,30.17,North,350,1.0,1.0,85,0.00,,,0.00,Wunderground v.1.15,2013-12-10 11:15:00,
2013-12-10 05:21:00,37.2,33.4,30.17,NW,323,1.0,4.0,86,0.00,,,0.00,Wunderground v.1.15,2013-12-10 11:21:00,
2013-12-10 05:26:00,37.0,32.9,30.18,NNW,330,2.0,2.0,85,0.00,,,0.00,Wunderground v.1.15,2013-12-10 11:26:00,
2013-12-10 05:32:00,36.9,32.8,30.17,North,5,2.0,4.0,85,0.00,,,0.00,Wunderground v.1.15,2013-12-10 11:32:00,
2013-12-10 05:37:00,36.9,32.8,30.18,North,355,2.0,2.0,85,0.00,,,0.00,Wunderground v.1.15,2013-12-10 11:37:00,
2013-12-10 05:42:00,36.8,32.7,30.18,North,350,1.0,3.0,85,0.00,,,0.00,Wunderground v.1.15,2013-12-10 11:42:00,
2013-12-10 05:48:00,36.7,32.6,30.18,NW,321,1.0,2.0,85,0.00,,,0.00,Wunderground v.1.15,2013-12-10 11:48:00,
2013-12-10 05:53:00,36.7,32.3,30.18,NW,323,2.0,4.0,84,0.00,,,0.00,Wunderground v.1.15,2013-12-10 11:53:00,
2013-12-10 05:59:00,36.6,32.2,30.19,NNW,328,2.0,2.0,84,0.00,,,0.00,Wunderground v.1.15,2013-12-10 11:59:00,
2013-12-10 06:04:00,36.6,31.9,30.19,NNW,333,2.0,3.0,83,0.00,,,0.00,Wunderground v.1.15,2013-12-10 12:04:00,
2013-12-10 06:09:00,36.6,31.9,30.19,NNE,27,2.0,3.0,83,0.00,,,0.00,Wunderground v.1.15,2013-12-10 12:09:00,
2013-12-10 06:15:00,36.5,31.8,30.19,North,10,2.0,2.0,83,0.00,,,0.00,Wunderground v.1.15,2013-12-10 12:15:00,
2013-12-10 06:20:00,36.5,31.5,30.20,WSW,257,2.0,4.0,82,0.00,,,0.00,Wunderground v.1.15,2013-12-10 12:20:00,
2013-12-10 06:26:00,36.4,31.4,30.20,NW,312,2.0,4.0,82,0.00,,,0.00,Wunderground v.1.15,2013-12-10 12:26:00,
2013-12-10 06:31:00,36.4,31.4,30.20,NW,312,2.0,4.0,82,0.00,,,0.00,Wunderground v.1.15,2013-12-10 12:31:00,
2013-12-10 06:36:00,36.3,31.3,30.21,NW,312,2.0,4.0,82,0.00,,,0.00,Wunderground v.1.15,2013-12-10 12:36:00,
2013-12-10 06:42:00,36.2,31.5,30.21,NNW,347,1.0,4.0,83,0.00,,,0.00,Wunderground v.1.15,2013-12-10 12:42:00,
2013-12-10 06:48:00,36.1,31.4,30.21,NW,322,1.0,2.0,83,0.00,,,0.00,Wunderground v.1.15,2013-12-10 12:48:00,
2013-12-10 06:53:00,36.0,31.3,30.21,NE,55,2.0,4.0,83,0.00,,,0.00,Wunderground v.1.15,2013-12-10 12:53:00,
2013-12-10 06:58:00,35.9,31.2,30.21,South,190,2.0,4.0,83,0.00,,,0.00,Wunderground v.1.15,2013-12-10 12:58:00,
2013-12-10 07:03:00,35.9,31.2,30.22,NW,313,2.0,4.0,83,0.00,,,0.00,Wunderground v.1.15,2013-12-10 13:03:00,
2013-12-10 07:09:00,35.9,31.2,30.22,NNE,20,1.0,2.0,83,0.00,,,0.00,Wunderground v.1.15,2013-12-10 13:09:00,
2013-12-10 07:14:00,35.8,31.1,30.22,NNW,333,1.0,2.0,83,0.00,,,0.00,Wunderground v.1.15,2013-12-10 13:14:00,
2013-12-10 07:20:00,35.7,31.0,30.22,NE,51,1.0,3.0,83,0.00,,,0.00,Wunderground v.1.15,2013-12-10 13:20:00,
2013-12-10 07:25:00,35.7,31.0,30.23,NNW,338,1.0,4.0,83,0.00,,,0.00,Wunderground v.1.15,2013-12-10 13:25:00,
2013-12-10 07:31:00,35.6,30.6,30.23,NW,314,1.0,2.0,82,0.00,,,0.00,Wunderground v.1.15,2013-12-10 13:31:00,
2013-12-10 07:36:00,35.7,31.0,30.23,WNW,285,1.0,1.0,83,0.00,,,0.00,Wunderground v.1.15,2013-12-10 13:36:00,
2013-12-10 07:42:00,35.6,30.6,30.24,NW,310,1.0,2.0,82,0.00,,,0.00,Wunderground v.1.15,2013-12-10 13:42:00,
2013-12-10 07:48:00,35.6,30.6,30.24,NW,313,1.0,2.0,82,0.00,,,0.00,Wunderground v.1.15,2013-12-10 13:48:00,
2013-12-10 07:53:00,35.5,30.5,30.24,NW,319,1.0,6.0,82,0.00,,,0.00,Wunderground v.1.15,2013-12-10 13:53:00,
2013-12-10 07:59:00,35.6,30.6,30.24,NNE,25,1.0,2.0,82,0.00,,,0.00,Wunderground v.1.15,2013-12-10 13:59:00,
2013-12-10 08:04:00,35.6,30.6,30.24,NNW,336,1.0,3.0,82,0.00,,,0.00,Wunderground v.1.15,2013-12-10 14:04:00,
2013-12-10 08:10:00,35.7,30.7,30.24,NNW,335,1.0,2.0,82,0.00,,,0.00,Wunderground v.1.15,2013-12-10 14:10:00,
2013-12-10 08:15:00,35.7,30.4,30.24,NW,326,1.0,3.0,81,0.00,,,0.00,Wunderground v.1.15,2013-12-10 14:15:00,
2013-12-10 08:20:00,35.7,30.4,30.25,NW,319,2.0,2.0,81,0.00,,,0.00,Wunderground v.1.15,2013-12-10 14:20:00,
2013-12-10 08:26:00,35.8,30.5,30.25,NW,326,2.0,2.0,81,0.00,,,0.00,Wunderground v.1.15,2013-12-10 14:26:00,
2013-12-10 08:31:00,35.8,30.5,30.25,NW,321,2.0,2.0,81,0.00,,,0.00,Wunderground v.1.15,2013-12-10 14:31:00,
2013-12-10 08:36:00,35.8,30.5,30.25,WNW,302,2.0,2.0,81,0.00,,,0.00,Wunderground v.1.15,2013-12-10 14:36:00,
2013-12-10 08:42:00,36.0,30.7,30.25,NW,312,1.0,2.0,81,0.00,,,0.00,Wunderground v.1.15,2013-12-10 14:42:00,
2013-12-10 08:47:00,36.1,30.8,30.25,NW,309,1.0,1.0,81,0.00,,,0.00,Wunderground v.1.15,2013-12-10 14:47:00,
2013-12-10 08:53:00,36.3,31.0,30.25,NW,307,1.0,3.0,81,0.00,,,0.00,Wunderground v.1.15,2013-12-10 14:53:00,
2013-12-10 08:58:00,36.5,30.9,30.25,WNW,293,1.0,3.0,80,0.00,,,0.00,Wunderground v.1.15,2013-12-10 14:58:00,
2013-12-10 09:03:00,36.3,30.7,30.25,NW,308,1.0,4.0,80,0.00,,,0.00,Wunderground v.1.15,2013-12-10 15:03:00,
2013-12-10 09:09:00,36.3,30.4,30.25,North,351,2.0,3.0,79,0.00,,,0.00,Wunderground v.1.15,2013-12-10 15:09:00,
2013-12-10 09:14:00,36.4,30.8,30.25,NW,323,1.0,3.0,80,0.00,,,0.00,Wunderground v.1.15,2013-12-10 15:14:00,
2013-12-10 09:20:00,36.6,30.7,30.25,ENE,57,1.0,2.0,79,0.00,,,0.00,Wunderground v.1.15,2013-12-10 15:20:00,
2013-12-10 09:25:00,36.8,30.9,30.25,NNW,338,1.0,4.0,79,0.00,,,0.00,Wunderground v.1.15,2013-12-10 15:25:00,
2013-12-10 09:31:00,36.9,31.0,30.26,NE,49,1.0,3.0,79,0.00,,,0.00,Wunderground v.1.15,2013-12-10 15:31:00,
2013-12-10 09:36:00,37.1,31.2,30.26,North,1,1.0,1.0,79,0.00,,,0.00,Wunderground v.1.15,2013-12-10 15:36:00,
2013-12-10 09:42:00,37.1,30.9,30.26,North,356,1.0,3.0,78,0.00,,,0.00,Wunderground v.1.15,2013-12-10 15:42:00,
2013-12-10 09:47:00,37.2,31.0,30.25,NNW,345,1.0,2.0,78,0.00,,,0.00,Wunderground v.1.15,2013-12-10 15:47:00,
2013-12-10 09:52:00,37.3,30.7,30.26,NNW,334,1.0,5.0,77,0.00,,,0.00,Wunderground v.1.15,2013-12-10 15:52:00,
2013-12-10 09:58:00,37.5,30.9,30.26,NW,321,2.0,2.0,77,0.00,,,0.00,Wunderground v.1.15,2013-12-10 15:58:00,
2013-12-10 10:03:00,37.8,30.9,30.26,NW,306,1.0,4.0,76,0.00,,,0.00,Wunderground v.1.15,2013-12-10 16:03:00,
2013-12-10 10:08:00,38.0,30.8,30.26,NE,49,1.0,3.0,75,0.00,,,0.00,Wunderground v.1.15,2013-12-10 16:08:00,
2013-12-10 10:14:00,38.3,31.1,30.26,East,92,1.0,3.0,75,0.00,,,0.00,Wunderground v.1.15,2013-12-10 16:14:00,
2013-12-10 10:19:00,38.6,31.0,30.26,NE,36,1.0,1.0,74,0.00,,,0.00,Wunderground v.1.15,2013-12-10 16:19:00,
2013-12-10 10:25:00,38.7,30.8,30.26,North,8,1.0,3.0,73,0.00,,,0.00,Wunderground v.1.15,2013-12-10 16:25:00,
2013-12-10 10:30:00,39.1,31.5,30.25,NW,319,1.0,2.0,74,0.00,,,0.00,Wunderground v.1.15,2013-12-10 16:30:00,
2013-12-10 10:35:00,39.1,30.8,30.25,WNW,302,1.0,1.0,72,0.00,,,0.00,Wunderground v.1.15,2013-12-10 16:35:00,
2013-12-10 10:41:00,39.3,31.4,30.26,WNW,300,1.0,2.0,73,0.00,,,0.00,Wunderground v.1.15,2013-12-10 16:41:00,
2013-12-10 10:46:00,39.7,31.4,30.25,WNW,296,1.0,1.0,72,0.00,,,0.00,Wunderground v.1.15,2013-12-10 16:46:00,
2013-12-10 10:51:00,39.8,31.5,30.26,NW,326,1.0,3.0,72,0.00,,,0.00,Wunderground v.1.15,2013-12-10 16:51:00,
2013-12-10 10:57:00,40.4,32.1,30.25,NW,319,1.0,1.0,72,0.00,,,0.00,Wunderground v.1.15,2013-12-10 16:57:00,
2013-12-10 11:02:00,40.7,32.0,30.25,NW,307,1.0,2.0,71,0.00,,,0.00,Wunderground v.1.15,2013-12-10 17:02:00,
2013-12-10 11:07:00,40.7,32.4,30.25,NNW,336,1.0,1.0,72,0.00,,,0.00,Wunderground v.1.15,2013-12-10 17:07:00,
2013-12-10 11:13:00,41.1,32.4,30.25,North,351,1.0,2.0,71,0.00,,,0.00,Wunderground v.1.15,2013-12-10 17:13:00,
2013-12-10 11:18:00,41.2,32.2,30.24,NNE,25,1.0,2.0,70,0.00,,,0.00,Wunderground v.1.15,2013-12-10 17:18:00,
2013-12-10 11:24:00,41.5,32.4,30.25,NNW,328,1.0,3.0,70,0.00,,,0.00,Wunderground v.1.15,2013-12-10 17:24:00,
2013-12-10 11:29:00,41.7,32.3,30.25,NW,317,1.0,2.0,69,0.00,,,0.00,Wunderground v.1.15,2013-12-10 17:29:00,
2013-12-10 11:35:00,42.0,32.2,30.25,NE,46,1.0,4.0,68,0.00,,,0.00,Wunderground v.1.15,2013-12-10 17:35:00,
2013-12-10 11:40:00,42.4,32.9,30.25,WNW,300,1.0,4.0,69,0.00,,,0.00,Wunderground v.1.15,2013-12-10 17:40:00,
2013-12-10 11:46:00,42.9,33.1,30.24,North,357,0.0,1.0,68,0.00,,,0.00,Wunderground v.1.15,2013-12-10 17:46:00,
2013-12-10 11:51:00,43.0,32.0,30.24,NNW,332,0.0,2.0,65,0.00,,,0.00,Wunderground v.1.15,2013-12-10 17:51:00,
2013-12-10 11:57:00,42.5,31.6,30.24,NNW,333,1.0,1.0,65,0.00,,,0.00,Wunderground v.1.15,2013-12-10 17:57:00,
2013-12-10 12:02:00,42.6,31.7,30.24,NNW,336,1.0,2.0,65,0.00,,,0.00,Wunderground v.1.15,2013-12-10 18:02:00,
2013-12-10 12:07:00,42.7,32.1,30.23,North,9,0.0,1.0,66,0.00,,,0.00,Wunderground v.1.15,2013-12-10 18:07:00,
2013-12-10 12:13:00,42.7,31.7,30.23,NW,304,1.0,2.0,65,0.00,,,0.00,Wunderground v.1.15,2013-12-10 18:13:00,
2013-12-10 12:18:00,42.8,31.8,30.23,NW,325,1.0,1.0,65,0.00,,,0.00,Wunderground v.1.15,2013-12-10 18:18:00,
2013-12-10 12:24:00,42.9,31.6,30.22,NW,314,1.0,1.0,64,0.00,,,0.00,Wunderground v.1.15,2013-12-10 18:24:00,
2013-12-10 12:29:00,42.8,31.1,30.22,NNW,328,1.0,2.0,63,0.00,,,0.00,Wunderground v.1.15,2013-12-10 18:29:00,
2013-12-10 12:35:00,42.9,31.2,30.22,NW,311,1.0,2.0,63,0.00,,,0.00,Wunderground v.1.15,2013-12-10 18:35:00,
2013-12-10 12:41:00,43.5,32.1,30.22,WNW,300,0.0,1.0,64,0.00,,,0.00,Wunderground v.1.15,2013-12-10 18:41:00,
2013-12-10 12:46:00,43.9,32.1,30.22,WNW,295,0.0,3.0,63,0.00,,,0.00,Wunderground v.1.15,2013-12-10 18:46:00,
2013-12-10 12:52:00,44.0,31.8,30.22,NW,323,1.0,3.0,62,0.00,,,0.00,Wunderground v.1.15,2013-12-10 18:52:00,
2013-12-10 12:58:00,43.8,31.2,30.21,NNW,340,1.0,1.0,61,0.00,,,0.00,Wunderground v.1.15,2013-12-10 18:58:00,
2013-12-10 13:03:00,43.9,31.7,30.20,NW,315,0.0,1.0,62,0.00,,,0.00,Wunderground v.1.15,2013-12-10 19:03:00,
2013-12-10 13:08:00,44.2,32.0,30.20,East,96,0.0,0.0,62,0.00,,,0.00,Wunderground v.1.15,2013-12-10 19:08:00,
2013-12-10 13:14:00,44.3,31.3,30.20,NNW,334,0.0,1.0,60,0.00,,,0.00,Wunderground v.1.15,2013-12-10 19:14:00,
2013-12-10 13:20:00,44.3,31.7,30.20,NW,318,0.0,1.0,61,0.00,,,0.00,Wunderground v.1.15,2013-12-10 19:20:00,
2013-12-10 13:25:00,44.5,31.5,30.19,NW,319,0.0,1.0,60,0.00,,,0.00,Wunderground v.1.15,2013-12-10 19:25:00,
2013-12-10 13:31:00,44.8,31.8,30.19,WNW,295,0.0,1.0,60,0.00,,,0.00,Wunderground v.1.15,2013-12-10 19:31:00,
2013-12-10 13:36:00,44.9,31.4,30.20,WNW,294,0.0,0.0,59,0.00,,,0.00,Wunderground v.1.15,2013-12-10 19:36:00,
2013-12-10 13:42:00,44.9,31.4,30.18,NW,316,0.0,1.0,59,0.00,,,0.00,Wunderground v.1.15,2013-12-10 19:42:00,
2013-12-10 13:47:00,44.9,31.0,30.18,WNW,293,0.0,0.0,58,0.00,,,0.00,Wunderground v.1.15,2013-12-10 19:47:00,
2013-12-10 13:53:00,44.9,31.4,30.18,WNW,298,1.0,5.0,59,0.00,,,0.00,Wunderground v.1.15,2013-12-10 19:53:00,
2013-12-10 13:58:00,45.0,31.1,30.18,East,79,0.0,2.0,58,0.00,,,0.00,Wunderground v.1.15,2013-12-10 19:58:00,
2013-12-10 14:04:00,45.1,31.2,30.18,NW,323,0.0,2.0,58,0.00,,,0.00,Wunderground v.1.15,2013-12-10 20:04:00,
2013-12-10 14:09:00,45.2,30.9,30.17,NW,323,0.0,2.0,57,0.00,,,0.00,Wunderground v.1.15,2013-12-10 20:09:00,
2013-12-10 14:15:00,45.1,30.8,30.17,NNW,332,0.0,2.0,57,0.00,,,0.00,Wunderground v.1.15,2013-12-10 20:15:00,
2013-12-10 14:21:00,45.2,30.4,30.17,NNW,328,0.0,1.0,56,0.00,,,0.00,Wunderground v.1.15,2013-12-10 20:21:00,
2013-12-10 14:26:00,45.2,30.4,30.17,NNW,328,0.0,0.0,56,0.00,,,0.00,Wunderground v.1.15,2013-12-10 20:26:00,
2013-12-10 14:32:00,45.3,30.5,30.17,NW,323,0.0,1.0,56,0.00,,,0.00,Wunderground v.1.15,2013-12-10 20:32:00,
2013-12-10 14:37:00,45.5,31.1,30.17,NW,314,0.0,0.0,57,0.00,,,0.00,Wunderground v.1.15,2013-12-10 20:37:00,
2013-12-10 14:43:00,45.8,31.0,30.16,NW,314,0.0,1.0,56,0.00,,,0.00,Wunderground v.1.15,2013-12-10 20:43:00,
2013-12-10 14:49:00,45.7,30.4,30.17,NW,314,0.0,1.0,55,0.00,,,0.00,Wunderground v.1.15,2013-12-10 20:49:00,
2013-12-10 14:54:00,45.8,31.0,30.17,North,355,0.0,1.0,56,0.00,,,0.00,Wunderground v.1.15,2013-12-10 20:54:00,
2013-12-10 15:00:00,45.9,30.6,30.16,NW,304,0.0,1.0,55,0.00,,,0.00,Wunderground v.1.15,2013-12-10 21:00:00,
2013-12-10 15:05:00,45.9,30.2,30.17,West,259,0.0,2.0,54,0.00,,,0.00,Wunderground v.1.15,2013-12-10 21:05:00,
2013-12-10 15:10:00,45.9,30.6,30.17,NNE,27,0.0,0.0,55,0.00,,,0.00,Wunderground v.1.15,2013-12-10 21:10:00,
2013-12-10 15:16:00,46.0,30.7,30.16,WNW,298,0.0,0.0,55,0.00,,,0.00,Wunderground v.1.15,2013-12-10 21:16:00,
2013-12-10 15:21:00,46.1,30.8,30.16,NNW,332,0.0,0.0,55,0.00,,,0.00,Wunderground v.1.15,2013-12-10 21:21:00,
2013-12-10 15:27:00,46.1,30.8,30.16,NNW,340,0.0,0.0,55,0.00,,,0.00,Wunderground v.1.15,2013-12-10 21:27:00,
2013-12-10 15:32:00,46.3,31.4,30.16,NW,325,0.0,0.0,56,0.00,,,0.00,Wunderground v.1.15,2013-12-10 21:32:00,
2013-12-10 15:37:00,46.3,30.5,30.16,WNW,298,0.0,2.0,54,0.00,,,0.00,Wunderground v.1.15,2013-12-10 21:37:00,
2013-12-10 15:43:00,46.1,29.9,30.16,NNW,330,0.0,2.0,53,0.00,,,0.00,Wunderground v.1.15,2013-12-10 21:43:00,
2013-12-10 15:48:00,46.2,30.5,30.15,NNW,336,0.0,1.0,54,0.00,,,0.00,Wunderground v.1.15,2013-12-10 21:48:00,
2013-12-10 15:53:00,46.2,30.5,30.15,NNE,16,0.0,1.0,54,0.00,,,0.00,Wunderground v.1.15,2013-12-10 21:53:00,
2013-12-10 15:59:00,46.3,30.5,30.14,NNE,15,0.0,2.0,54,0.00,,,0.00,Wunderground v.1.15,2013-12-10 21:59:00,
2013-12-10 16:05:00,46.3,30.5,30.15,NNE,25,0.0,0.0,54,0.00,,,0.00,Wunderground v.1.15,2013-12-10 22:05:00,
2013-12-10 16:11:00,46.3,30.1,30.15,North,360,0.0,0.0,53,0.00,,,0.00,Wunderground v.1.15,2013-12-10 22:11:00,
2013-12-10 16:16:00,46.3,30.1,30.15,NNE,26,0.0,0.0,53,0.00,,,0.00,Wunderground v.1.15,2013-12-10 22:16:00,
2013-12-10 16:22:00,46.3,30.1,30.15,NW,317,0.0,3.0,53,0.00,,,0.00,Wunderground v.1.15,2013-12-10 22:22:00,
2013-12-10 16:27:00,46.2,30.0,30.15,WNW,288,0.0,2.0,53,0.00,,,0.00,Wunderground v.1.15,2013-12-10 22:27:00,
2013-12-10 16:33:00,46.2,30.5,30.15,NNE,27,0.0,2.0,54,0.00,,,0.00,Wunderground v.1.15,2013-12-10 22:33:00,
2013-12-10 16:39:00,46.2,30.5,30.15,North,349,0.0,0.0,54,0.00,,,0.00,Wunderground v.1.15,2013-12-10 22:39:00,
2013-12-10 16:44:00,46.1,30.8,30.15,NNE,14,0.0,0.0,55,0.00,,,0.00,Wunderground v.1.15,2013-12-10 22:44:00,
2013-12-10 16:49:00,46.1,30.8,30.14,NW,325,0.0,1.0,55,0.00,,,0.00,Wunderground v.1.15,2013-12-10 22:49:00,
2013-12-10 16:54:00,46.1,30.8,30.15,North,360,0.0,1.0,55,0.00,,,0.00,Wunderground v.1.15,2013-12-10 22:54:00,
2013-12-10 17:00:00,46.0,30.7,30.15,NNE,22,0.0,0.0,55,0.00,,,0.00,Wunderground v.1.15,2013-12-10 23:00:00,
2013-12-10 17:05:00,46.0,30.7,30.15,NNE,23,0.0,1.0,55,0.00,,,0.00,Wunderground v.1.15,2013-12-10 23:05:00,
2013-12-10 17:11:00,45.9,30.6,30.15,North,10,0.0,0.0,55,0.00,,,0.00,Wunderground v.1.15,2013-12-10 23:11:00,
2013-12-10 17:17:00,45.8,30.5,30.15,North,352,0.0,1.0,55,0.00,,,0.00,Wunderground v.1.15,2013-12-10 23:17:00,
2013-12-10 17:23:00,45.7,31.3,30.15,North,354,0.0,1.0,57,0.00,,,0.00,Wunderground v.1.15,2013-12-10 23:23:00,
2013-12-10 17:28:00,45.6,31.7,30.16,ENE,57,0.0,0.0,58,0.00,,,0.00,Wunderground v.1.15,2013-12-10 23:28:00,
2013-12-10 17:34:00,45.5,31.6,30.15,North,358,0.0,0.0,58,0.00,,,0.00,Wunderground v.1.15,2013-12-10 23:34:00,
2013-12-10 17:39:00,45.5,32.4,30.15,North,358,0.0,0.0,60,0.00,,,0.00,Wunderground v.1.15,2013-12-10 23:39:00,
2013-12-10 17:45:00,45.3,32.6,30.15,North,358,0.0,0.0,61,0.00,,,0.00,Wunderground v.1.15,2013-12-10 23:45:00,
2013-12-10 17:50:00,45.2,32.9,30.15,North,358,0.0,1.0,62,0.00,,,0.00,Wunderground v.1.15,2013-12-10 23:50:00,
2013-12-10 17:55:00,45.0,32.8,30.15,North,358,0.0,1.0,62,0.00,,,0.00,Wunderground v.1.15,2013-12-10 23:55:00,
2013-12-10 18:01:00,44.9,33.1,30.15,North,359,0.0,0.0,63,0.00,,,0.00,Wunderground v.1.15,2013-12-11 00:01:00,
2013-12-10 18:06:00,44.8,33.4,30.15,North,358,0.0,0.0,64,0.00,,,0.00,Wunderground v.1.15,2013-12-11 00:06:00,
2013-12-10 18:12:00,44.8,33.4,30.15,North,358,0.0,0.0,64,0.00,,,0.00,Wunderground v.1.15,2013-12-11 00:12:00,
2013-12-10 18:17:00,44.7,33.6,30.16,North,358,0.0,0.0,65,0.00,,,0.00,Wunderground v.1.15,2013-12-11 00:17:00,
2013-12-10 18:23:00,44.7,34.0,30.16,North,358,0.0,0.0,66,0.00,,,0.00,Wunderground v.1.15,2013-12-11 00:23:00,
2013-12-10 18:28:00,44.7,34.4,30.16,North,359,0.0,0.0,67,0.00,,,0.00,Wunderground v.1.15,2013-12-11 00:28:00,
2013-12-10 18:34:00,44.6,33.9,30.16,North,359,0.0,0.0,66,0.00,,,0.00,Wunderground v.1.15,2013-12-11 00:34:00,
2013-12-10 18:39:00,44.6,33.9,30.16,North,359,0.0,0.0,66,0.00,,,0.00,Wunderground v.1.15,2013-12-11 00:39:00,
2013-12-10 18:45:00,44.6,33.9,30.16,North,358,0.0,0.0,66,0.00,,,0.00,Wunderground v.1.15,2013-12-11 00:45:00,
2013-12-10 18:50:00,44.7,33.6,30.16,North,359,0.0,0.0,65,0.00,,,0.00,Wunderground v.1.15,2013-12-11 00:50:00,
2013-12-10 18:56:00,44.7,33.3,30.16,North,358,0.0,0.0,64,0.00,,,0.00,Wunderground v.1.15,2013-12-11 00:56:00,
2013-12-10 19:02:00,44.7,33.6,30.16,North,359,0.0,0.0,65,0.00,,,0.00,Wunderground v.1.15,2013-12-11 01:02:00,
2013-12-10 19:08:00,44.7,33.6,30.17,North,358,0.0,0.0,65,0.00,,,0.00,Wunderground v.1.15,2013-12-11 01:08:00,
2013-12-10 19:13:00,44.7,33.6,30.17,North,359,0.0,0.0,65,0.00,,,0.00,Wunderground v.1.15,2013-12-11 01:13:00,
2013-12-10 19:19:00,44.7,33.6,30.17,North,358,0.0,0.0,65,0.00,,,0.00,Wunderground v.1.15,2013-12-11 01:19:00,
2013-12-10 19:24:00,44.7,33.6,30.17,North,358,0.0,0.0,65,0.00,,,0.00,Wunderground v.1.15,2013-12-11 01:24:00,
2013-12-10 19:30:00,44.7,33.6,30.17,North,359,0.0,0.0,65,0.00,,,0.00,Wunderground v.1.15,2013-12-11 01:30:00,
2013-12-10 19:35:00,44.7,33.6,30.17,North,358,0.0,0.0,65,0.00,,,0.00,Wunderground v.1.15,2013-12-11 01:35:00,
2013-12-10 19:41:00,44.7,33.6,30.17,North,359,0.0,0.0,65,0.00,,,0.00,Wunderground v.1.15,2013-12-11 01:41:00,
2013-12-10 19:46:00,44.7,33.6,30.18,North,358,0.0,0.0,65,0.00,,,0.00,Wunderground v.1.15,2013-12-11 01:46:00,
2013-12-10 19:51:00,44.6,33.6,30.18,North,358,0.0,0.0,65,0.00,,,0.00,Wunderground v.1.15,2013-12-11 01:51:00,
2013-12-10 19:56:00,44.3,33.3,30.18,North,358,0.0,0.0,65,0.00,,,0.00,Wunderground v.1.15,2013-12-11 01:56:00,
2013-12-10 20:02:00,43.8,33.6,30.19,North,358,0.0,0.0,67,0.00,,,0.00,Wunderground v.1.15,2013-12-11 02:02:00,
2013-12-10 20:08:00,43.2,33.3,30.19,North,358,0.0,0.0,68,0.00,,,0.00,Wunderground v.1.15,2013-12-11 02:08:00,
2013-12-10 20:13:00,42.7,33.2,30.19,North,358,0.0,0.0,69,0.00,,,0.00,Wunderground v.1.15,2013-12-11 02:13:00,
2013-12-10 20:18:00,42.0,32.6,30.19,North,358,0.0,0.0,69,0.00,,,0.00,Wunderground v.1.15,2013-12-11 02:18:00,
2013-12-10 20:24:00,41.5,32.8,30.18,North,358,0.0,0.0,71,0.00,,,0.00,Wunderground v.1.15,2013-12-11 02:24:00,
2013-12-10 20:29:00,41.1,33.1,30.18,North,358,0.0,0.0,73,0.00,,,0.00,Wunderground v.1.15,2013-12-11 02:29:00,
2013-12-10 20:34:00,40.7,32.7,30.17,North,359,0.0,0.0,73,0.00,,,0.00,Wunderground v.1.15,2013-12-11 02:34:00,
2013-12-10 20:40:00,40.4,33.1,30.18,North,359,0.0,0.0,75,0.00,,,0.00,Wunderground v.1.15,2013-12-11 02:40:00,
2013-12-10 20:45:00,40.2,32.9,30.18,North,359,0.0,0.0,75,0.00,,,0.00,Wunderground v.1.15,2013-12-11 02:45:00,
2013-12-10 20:50:00,40.0,32.7,30.18,North,358,0.0,0.0,75,0.00,,,0.00,Wunderground v.1.15,2013-12-11 02:50:00,
2013-12-10 20:55:00,39.7,32.8,30.18,North,358,0.0,0.0,76,0.00,,,0.00,Wunderground v.1.15,2013-12-11 02:55:00,
2013-12-10 21:01:00,39.6,33.0,30.18,North,358,0.0,0.0,77,0.00,,,0.00,Wunderground v.1.15,2013-12-11 03:01:00,
2013-12-10 21:07:00,39.6,33.3,30.17,North,358,0.0,0.0,78,0.00,,,0.00,Wunderground v.1.15,2013-12-11 03:07:00,
2013-12-10 21:12:00,39.5,33.2,30.17,North,358,0.0,0.0,78,0.00,,,0.00,Wunderground v.1.15,2013-12-11 03:12:00,
2013-12-10 21:18:00,39.4,33.1,30.17,North,358,0.0,0.0,78,0.00,,,0.00,Wunderground v.1.15,2013-12-11 03:18:00,
2013-12-10 21:23:00,39.7,33.4,30.17,North,358,0.0,0.0,78,0.00,,,0.00,Wunderground v.1.15,2013-12-11 03:23:00,
2013-12-10 21:29:00,40.3,33.7,30.17,North,358,0.0,0.0,77,0.00,,,0.00,Wunderground v.1.15,2013-12-11 03:29:00,
2013-12-10 21:34:00,40.8,33.5,30.16,North,359,0.0,0.0,75,0.00,,,0.00,Wunderground v.1.15,2013-12-11 03:34:00,
2013-12-10 21:40:00,41.4,33.7,30.17,North,358,0.0,0.0,74,0.00,,,0.00,Wunderground v.1.15,2013-12-11 03:40:00,
2013-12-10 21:45:00,41.8,33.8,30.17,North,359,0.0,0.0,73,0.00,,,0.00,Wunderground v.1.15,2013-12-11 03:45:00,
2013-12-10 21:50:00,42.1,33.7,30.17,North,358,0.0,0.0,72,0.00,,,0.00,Wunderground v.1.15,2013-12-11 03:50:00,
2013-12-10 21:55:00,42.3,33.6,30.17,North,358,0.0,0.0,71,0.00,,,0.00,Wunderground v.1.15,2013-12-11 03:55:00,
2013-12-10 22:01:00,42.6,33.5,30.17,North,359,0.0,0.0,70,0.00,,,0.00,Wunderground v.1.15,2013-12-11 04:01:00,
2013-12-10 22:06:00,42.8,33.7,30.17,North,358,0.0,0.0,70,0.00,,,0.00,Wunderground v.1.15,2013-12-11 04:06:00,
2013-12-10 22:12:00,43.1,33.6,30.17,North,360,0.0,0.0,69,0.00,,,0.00,Wunderground v.1.15,2013-12-11 04:12:00,
2013-12-10 22:17:00,43.2,33.7,30.17,North,353,0.0,0.0,69,0.00,,,0.00,Wunderground v.1.15,2013-12-11 04:17:00,
2013-12-10 22:22:00,43.3,33.4,30.17,North,353,0.0,0.0,68,0.00,,,0.00,Wunderground v.1.15,2013-12-11 04:22:00,
2013-12-10 22:28:00,43.4,33.5,30.18,NNE,23,0.0,0.0,68,0.00,,,0.00,Wunderground v.1.15,2013-12-11 04:28:00,
2013-12-10 22:33:00,43.5,33.6,30.18,NNE,23,0.0,0.0,68,0.00,,,0.00,Wunderground v.1.15,2013-12-11 04:33:00,
2013-12-10 22:39:00,43.5,33.6,30.17,NNE,25,0.0,0.0,68,0.00,,,0.00,Wunderground v.1.15,2013-12-11 04:39:00,
2013-12-10 22:44:00,43.6,34.1,30.17,NNE,25,0.0,0.0,69,0.00,,,0.00,Wunderground v.1.15,2013-12-11 04:44:00,
2013-12-10 22:50:00,43.7,34.2,30.18,NE,53,0.0,1.0,69,0.00,,,0.00,Wunderground v.1.15,2013-12-11 04:50:00,
2013-12-10 22:55:00,43.8,34.6,30.17,NE,46,0.0,1.0,70,0.00,,,0.00,Wunderground v.1.15,2013-12-11 04:55:00,
2013-12-10 23:01:00,43.8,34.6,30.17,NE,47,0.0,0.0,70,0.00,,,0.00,Wunderground v.1.15,2013-12-11 05:01:00,
2013-12-10 23:02:00,43.9,34.7,30.17,NE,47,0.0,0.0,70,0.00,,,0.00,Wunderground v.1.15,2013-12-11 05:02:00,
2013-12-10 23:05:00,43.9,34.7,30.17,ESE,112,0.0,0.0,70,0.00,,,0.00,Wunderground v.1.15,2013-12-11 05:05:00,
2013-12-10 23:07:00,43.9,34.7,30.17,ESE,111,0.0,0.0,70,0.00,,,0.00,Wunderground v.1.15,2013-12-11 05:07:00,
2013-12-10 23:08:00,43.9,34.7,30.17,ESE,112,0.0,0.0,70,0.00,,,0.00,Wunderground v.1.15,2013-12-11 05:08:00,
2013-12-10 23:09:00,44.0,34.8,30.17,ESE,112,0.0,0.0,70,0.00,,,0.00,Wunderground v.1.15,2013-12-11 05:09:00,
2013-12-10 23:15:00,44.0,35.2,30.17,ESE,112,0.0,0.0,71,0.00,,,0.00,Wunderground v.1.15,2013-12-11 05:15:00,
2013-12-10 23:20:00,44.0,35.2,30.17,ESE,111,0.0,0.0,71,0.00,,,0.00,Wunderground v.1.15,2013-12-11 05:20:00,
2013-12-10 23:26:00,44.0,35.2,30.17,ESE,111,0.0,0.0,71,0.00,,,0.00,Wunderground v.1.15,2013-12-11 05:26:00,
2013-12-10 23:31:00,44.1,35.3,30.17,ESE,111,0.0,1.0,71,0.00,,,0.00,Wunderground v.1.15,2013-12-11 05:31:00,
2013-12-10 23:37:00,44.1,35.3,30.17,ESE,111,0.0,0.0,71,0.00,,,0.00,Wunderground v.1.15,2013-12-11 05:37:00,
2013-12-10 23:42:00,44.1,35.3,30.16,ESE,112,0.0,0.0,71,0.00,,,0.00,Wunderground v.1.15,2013-12-11 05:42:00,
2013-12-10 23:48:00,44.1,35.3,30.16,ESE,112,0.0,0.0,71,0.00,,,0.00,Wunderground v.1.15,2013-12-11 05:48:00,
2013-12-10 23:53:00,44.2,35.4,30.16,ESE,112,0.0,0.0,71,0.00,,,0.00,Wunderground v.1.15,2013-12-11 05:53:00,
2013-12-10 23:59:00,44.2,35.4,30.16,ESE,122,0.0,0.0,71,0.00,,,0.00,Wunderground v.1.15,2013-12-11 05:59:00,